Location: Newark
(35.6799°N, 139.7636°E)
Time: 07:36:39
(UTC+00:00)

Transit 2A - Pass Details

Date: 09 December 2019
Orbit: 601 x 957 km, 66.7° (Epoch: 18 January)

Event Time Altitude Azimuth Distance (km) Brightness Sun altitude
Rises 20:40:46 0° 183° (S) 3,192 9.4 -11.7°
Reaches altitude 10° 20:43:26 10° 173° (S) 2,210 8.8 -11.2°
Maximum altitude 20:47:50 32° 111° (ESE) 1,164 7.9 -10.3°
Drops below altitude 10° 20:51:56 10° 49° (NE) 2,048 8.6 -9.5°
Sets 20:54:18 0° 39° (NE) 2,923 9.3 -9.1°
